Tracking 29892 objects as of 21-Nov-2024
HD Live streaming from Space Station
objects crossing your sky now

STARLINK-6312

Track STARLINK-6312 now!
10-day predictions
STARLINK-6312 is classified as:


NORAD ID: 56536
Int'l Code: 2023-065AK
Perigee: 565.6 km
Apogee: 566.8 km
Inclination: 43.0 °
Period: 95.8 minutes
Semi major axis: 6937 km
RCS: Unknown
Launch date: May 14, 2023
Source: United States (US)
Launch site: AIR FORCE EASTERN TEST RANGE (AFETR)
Your satellite tracking list
Your tracking list is empty




NASA's NSSDC Master Catalog

Two Line Element Set (TLE):
1 56536U 23065AK  24325.97538718 -.00002595  00000-0 -17706-3 0  9992
2 56536  43.0026 277.5779 0000902 272.8600  87.2139 15.02544985 84434
Source of the keplerian elements: AFSPC